Location: Unspecified
(0.0000°N, 0.0000°E)
Time: 16:53:52
(UTC+00:00)

Hubble Space Telescope - Pass Details

Date: 06 May 2021
Orbit: 535 x 539 km, 28.5° (Epoch: 14 May)

Event Time Altitude Azimuth Distance (km) Brightness Sun altitude
Rises 19:30:22 0° 302° (WNW) 2,669 5.7 -22.4°
Reaches altitude 10° 19:32:38 10° 303° (WNW) 1,780 4.4 -22.9°
Enters shadow 19:36:24 72° 330° (NNW) 563 0.8 -23.8°
